Regional Weather Roundup
Issued by NWS

Home | Current Version | Previous Version | Text Only | Print | Product List | Glossary On
Versions: 1 2 3 4 5 6 7 8 9 10 11 12 13 14 15 16 17 18 19 20 21 22 23 24 25 26 27 28 29 30 31 32 33 34 35 36 37 38 39 40 41 42 43 44 45 46 47 48 49 50
000
ASUS45 KTFX 241610
RWRMT
MONTANA REGIONAL WEATHER ROUNDUP
NATIONAL WEATHER SERVICE GREAT FALLS MT
1000 AM MDT SAT JUN 24 2017

NOTE: "FAIR" INDICATES FEW OR NO CLOUDS BELOW 12000 FEET WITH NO
SIGNIFICANT WEATHER AND/OR OBSTRUCTIONS TO VISIBILITY.

MTZ001>007-043-241700-
WEST OF THE DIVIDE

CITY           SKY/WX    TMP DP  RH WIND       PRES   REMARKS
KALISPELL      SUNNY     65  47  52 VRB5      30.29S
MISSOULA       SUNNY     63  42  46 NW5       30.30F
BUTTE          SUNNY     60  36  40 CALM      30.37F
MULLAN PASS    SUNNY     60  33  36 VRB5      30.37S
DEER LODGE       N/A     59  41  51 CALM      30.37F
EUREKA           N/A     63  43  48 MISG      30.31F
HAMILTON         N/A     61  39  44 NW3       30.31S
$$

MTZ008-052>055-241700-
SOUTHWEST MONTANA

CITY           SKY/WX    TMP DP  RH WIND       PRES   REMARKS
BOZEMAN        SUNNY     60  40  47 NW7       30.35F
DILLON         SUNNY     59  38  45 N9        30.35F
W YELLOWSTONE  SUNNY     57  32  38 CALM      30.39F
ENNIS          SUNNY     57  37  47 CALM      30.41S
THREE FORKS      N/A     60  40  47 CALM      30.31S
$$

MTZ009-010-012-014-046-048-049-054-241700-
EAST SLOPES AND CENTRAL MONTANA

CITY           SKY/WX    TMP DP  RH WIND       PRES   REMARKS
CUT BANK       SUNNY     62  42  47 CALM      30.35S
GREAT FALLS    SUNNY     64  38  38 SE3       30.35S
MALMSTROM AFB  SUNNY     62  40  45 CALM      30.34F
HELENA         SUNNY     63  39  41 VRB3      30.33F
CHOTEAU          N/A     64  39  39 VRB6      30.36F
$$

MTZ011-013-016-021-045-047-050-051-241700-
NORTH CENTRAL MONTANA

CITY           SKY/WX    TMP DP  RH WIND       PRES   REMARKS
HAVRE          MOSUNNY   65  41  41 W5        30.32F
LEWISTOWN      SUNNY     61  35  37 VRB3      30.35F
N BAR RANCH      N/A     61  34  36 NW9G16    30.38S
CHINOOK          N/A     64  41  42 W5        30.32S
$$

MTZ017>020-022>027-061-062-241700-
NORTHEAST MONTANA

CITY           SKY/WX    TMP DP  RH WIND       PRES   REMARKS
GLASGOW        SUNNY     61  36  39 VRB3      30.31S
JORDAN           N/A     67  35  30 N14G23    30.30S
SIDNEY         SUNNY     60  35  39 N15G24    30.29S
WOLF POINT     SUNNY     63  35  35 E5        30.31S
MALTA          SUNNY     64  45  48 S9        30.30F
PLENTYWOOD       N/A     55  36  47 NW17G23   30.28S
POPLAR           N/A     61  36  39 N12       30.31S
$$

MTZ028>42-056>058-241700-
SOUTHCENTRAL AND SOUTHEAST MONTANA

CITY           SKY/WX    TMP DP  RH WIND       PRES   REMARKS
BAKER          SUNNY     61  33  35 N15G22    30.30S
BILLINGS       MOSUNNY   64  39  39 CALM      30.34F
LIVINGSTON     SUNNY     60  39  45 W5        30.35F
MILES CITY     SUNNY     68  34  28 NW14      30.29S
BIG TIMBER     SUNNY     59  39  47 CALM      30.38F
FORSYTH          N/A     64  36  34 CALM      30.30S
ROUNDUP          N/A     66  31  27 W9        30.22S
$$

REGIONAL REPORTS...DAKOTAS

CITY           SKY/WX    TMP DP  RH WIND       PRES   REMARKS
WILLISTON      SUNNY     60  36  40 NW22G28   30.28S
MINOT          CLOUDY    52  42  69 NW21G29   30.18R
DICKINSON      SUNNY     58  30  34 NW24G36   30.23R
BEACH            N/A     57  34  41 N14G20    30.32S
CROSBY           N/A     54  41  62 NW17G24   30.27S
TIOGA            N/A     52  43  71 NW22      30.26S
WATFORD CITY     N/A     55  39  54 NW16G24   30.27R
BISMARCK       MOSUNNY   56  38  50 NW23G35   30.20R
GRAND FORKS    PTSUNNY   56  47  71 NW16      30.01R
FARGO          PTSUNNY   60  48  64 NW16      30.03S
BUFFALO SD       N/A     62  36  37 N15       30.21S
RAPID CITY     MOSUNNY   69  33  26 NW21G29   30.27S
$$

REGIONAL REPORTS...WYOMING/IDAHO/WASHINGTON

CITY           SKY/WX    TMP DP  RH WIND       PRES   REMARKS
GILLETTE         N/A     62  35  36 N9        30.33F
SHERIDAN       SUNNY     66  37  34 N8        30.34S
BUFFALO WY     SUNNY     62  35  36 N16G24    30.36F
CODY           SUNNY     61  34  36 NE7       30.38S
YELLOWSTONE LA   N/A     49  31  49 CALM      30.45F
IDAHO FALLS    SUNNY     63  45  51 VRB5      30.29S
SALMON         SUNNY     61  39  44 CALM      30.28F
BOISE          SUNNY     68  42  38 N3        30.20S
SPOKANE        SUNNY     66  44  45 NE7       30.25S
$$

REGIONAL REPORTS...ALBERTA

CITY           SKY/WX    TMP DP  RH WIND       PRES   REMARKS
EDMONTON       SUNNY     63  50  63 W5        30.28S
CALGARY        PTSUNNY   63  46  55 N7        30.35R
LETHBRIDGE     MOSUNNY   63  43  48 S5        30.33S
MEDICINE HAT   PTSUNNY   64  43  45 S3        30.31R
CARDSTON         N/A     63  41  45 SE5         N/A
MILK RIVER       N/A     64  39  39 NE6         N/A
$$

REGIONAL REPORTS...SASKATCHEWAN

CITY           SKY/WX    TMP DP  RH WIND       PRES   REMARKS
SWIFT CURRENT  SUNNY     61  45  55 N6        30.29S
REGINA         MOSUNNY   55  39  54 N12G17    30.29S
SASKATOON      MOSUNNY   61  45  55 W6        30.27S
ROCKGLEN         N/A     59  36  41 NW10        N/A
ASSINIBOIA       N/A     64  46  52 NW9         N/A
$$



USA.gov is the U.S. government's official web portal to all federal, state and local government web resources and services.